map of DWC home
Great Circle Mapper logo
DWC - Airport
Location
City:  Jebel Ali, United Arab Emirates
Name:Al Maktoum International Airport
Old (Alt.):Dubai World Central International Airport
ICAO / IATA:OMDW / DWC

Details
Type:Airport (Aerodrome, Airfield)
Use:International (customs port of entry)
Latitude:2453'10"N (24.886111)
Longitude:5510'20"E (55.172222)
Variation:1.88E (WMM2015 magnetic declination)
0.05 annual change
Runways:1
Longest:14764 ft (4500 m)

Time
Time Zone:UTC+4
Local Time:

Weather
METAR:OMDW 281100Z 29013KT CAVOK 35/10 Q1011 NOSIG
TAF:OMDW 281101Z 2812/2918 31012KT CAVOK
BECMG 2816/2818 17005KT PROB30 2823/2904 0100 FG VV///
BECMG 2906/2908 31012KT
BECMG 2915/2917 19005KT

Related Locations
Nearby:
Farthest:GMR: 11799 mi / 18989 km
Mangareva [Totegegie], Gambier Islands, PF

Find:

   beyond  
but within

Other Information
Maps:
NOTAMs:
Links:
Sources:

  
flag of United Arab Emirates   

Sectional Chart

Flight Planning
at skyvector.com

Satellite Image

Google Maps Satellite View

 

Copyright © 2004-2015 Karl L. Swartz. All rights reserved.
The Great Circle Mapper name and logo are trademarks of the Great Circle Mapper.
All other trademarks mentioned herein belong to their respective owners.
Please see credits for attibutions and further copyright information.

  Follow gcmap on Facebook Follow gcmap on Twitter Follow gcmap on Google+

hCard Microformat

Geo Microformat